Simultaneous Nadir Overpasses (SNOs) Predictions

Prediction of SNOs between LANDSAT-8 and NPP Satellite Orbit:

Table of predicted SNOs for the next 14.0 days since TLE Epoch: 3/22/2015
Index Date (LANDSAT-8) Time (LANDSAT-8) Lat,Lon (LANDSAT-8) SZA (LANDSAT-8 ) Date (NPP) Time (NPP) Lat,Lon (NPP) SZA (NPP ) Distance(km) Time Diff (sec)
1 03/22/2015 02:50:33 70.73, 134.49 70.23 03/22/2015 02:50:02 70.72, 134.45 70.22 2.10 31
2 03/22/2015 03:40:03 -70.61, -58.06 109.91 03/22/2015 03:40:44 -70.62, -58.08 109.90 1.19 41
3 03/24/2015 18:17:27 -71.11, 83.31 110.46 03/24/2015 18:16:16 -71.18, 82.13 110.34 43.01 71
4 03/24/2015 19:07:00 70.68,-109.70 69.12 03/24/2015 19:06:52 70.66,-109.70 69.11 1.98 8
5 03/24/2015 19:56:30 -70.57, 57.76 111.01 03/24/2015 19:57:34 -70.56, 57.78 111.02 0.89 64
6 03/27/2015 10:34:00 -70.76,-161.34 111.85 03/27/2015 10:33:00 -70.77,-161.40 111.83 2.15 60
7 03/27/2015 11:23:27 70.66, 6.15 68.04 03/27/2015 11:23:44 70.67, 6.07 68.06 3.18 17
8 03/27/2015 12:13:07 -70.00, 172.82 112.61 03/27/2015 12:14:15 -69.99, 174.45 112.67 62.00 68
9 03/30/2015 02:50:27 -70.71, -45.54 112.95 03/30/2015 02:49:51 -70.72, -45.56 112.93 1.50 36
10 03/30/2015 03:39:54 70.61, 121.95 66.94 03/30/2015 03:40:35 70.63, 121.91 66.96 2.94 41
11 04/01/2015 18:17:18 71.07, -96.73 66.38 04/01/2015 18:16:07 71.16, -97.82 66.50 40.66 71
12 04/01/2015 19:06:53 -70.69, 70.31 114.02 04/01/2015 19:06:42 -70.68, 70.28 114.01 1.18 11
13 04/01/2015 19:56:20 70.58,-122.20 65.87 04/01/2015 19:57:26 70.59,-122.26 65.88 2.61 66
14 04/04/2015 10:33:48 70.74, 18.65 65.03 04/04/2015 10:32:50 70.76, 18.62 65.05 2.44 58
15 04/04/2015 11:23:18 -70.63,-173.88 115.10 04/04/2015 11:23:32 -70.65,-173.89 115.08 2.41 14
16 04/04/2015 12:12:56 69.92, -7.27 64.21 04/04/2015 12:14:04 69.93, -5.46 64.16 69.19 68




NCC Satellite Simultaneous Nadir Overpasses (SNOs) Prediction Service
